TimeCST,TemperatureF,Dew PointF,Humidity,Sea Level PressureIn,VisibilityMPH,Wind Direction,Wind SpeedMPH,Gust SpeedMPH,PrecipitationIn,Events,Conditions,WindDirDegrees,DateUTC
12:53 AM,30.0,25.0,82,30.29,10.0,Calm,Calm,-,N/A,,Clear,0,2013-03-03 06:53:00
1:53 AM,28.9,25.0,85,30.28,10.0,Calm,Calm,-,N/A,,Clear,0,2013-03-03 07:53:00
2:53 AM,28.0,25.0,88,30.27,9.0,Calm,Calm,-,N/A,,Clear,0,2013-03-03 08:53:00
3:53 AM,26.1,23.0,88,30.28,7.0,Calm,Calm,-,N/A,,Clear,0,2013-03-03 09:53:00
4:53 AM,27.0,25.0,92,30.30,6.0,Calm,Calm,-,N/A,,Clear,0,2013-03-03 10:53:00
5:53 AM,26.1,23.0,88,30.30,6.0,Calm,Calm,-,N/A,,Clear,0,2013-03-03 11:53:00
6:53 AM,26.1,24.1,92,30.30,4.0,Calm,Calm,-,N/A,,Clear,0,2013-03-03 12:53:00
7:53 AM,32.0,28.0,85,30.29,10.0,South,5.8,-,N/A,,Clear,170,2013-03-03 13:53:00
8:53 AM,37.0,27.0,67,30.30,10.0,South,4.6,-,N/A,,Clear,190,2013-03-03 14:53:00
9:53 AM,41.0,25.0,53,30.30,10.0,Calm,Calm,-,N/A,,Clear,0,2013-03-03 15:53:00
10:53 AM,44.1,26.1,49,30.29,10.0,Variable,4.6,-,N/A,,Clear,0,2013-03-03 16:53:00
11:53 AM,46.9,25.0,42,30.26,10.0,SSW,4.6,-,N/A,,Clear,200,2013-03-03 17:53:00
12:53 PM,50.0,24.1,36,30.22,10.0,Calm,Calm,-,N/A,,Clear,0,2013-03-03 18:53:00
1:53 PM,53.1,24.1,32,30.18,10.0,Calm,Calm,-,N/A,,Clear,0,2013-03-03 19:53:00
2:53 PM,55.9,26.1,32,30.14,10.0,SSE,8.1,-,N/A,,Clear,150,2013-03-03 20:53:00
3:53 PM,55.9,27.0,33,30.12,10.0,SSE,6.9,-,N/A,,Clear,150,2013-03-03 21:53:00
4:53 PM,55.9,27.0,33,30.10,10.0,SSE,8.1,-,N/A,,Clear,150,2013-03-03 22:53:00
5:53 PM,53.1,28.0,38,30.10,10.0,SE,5.8,-,N/A,,Clear,140,2013-03-03 23:53:00
6:53 PM,50.0,30.0,46,30.10,10.0,SE,4.6,-,N/A,,Clear,130,2013-03-04 00:53:00
7:53 PM,50.0,30.9,48,30.09,10.0,SSE,6.9,-,N/A,,Clear,150,2013-03-04 01:53:00
8:53 PM,48.9,30.9,50,30.09,10.0,SSE,8.1,-,N/A,,Clear,160,2013-03-04 02:53:00
9:53 PM,48.0,30.0,50,30.07,10.0,South,9.2,-,N/A,,Clear,170,2013-03-04 03:53:00
10:53 PM,46.9,30.9,54,30.06,10.0,South,8.1,-,N/A,,Clear,180,2013-03-04 04:53:00
11:53 PM,46.0,30.9,56,30.06,10.0,South,6.9,-,N/A,,Clear,180,2013-03-04 05:53:00